[[[{"header":{"parameterUnit":"kt","parameterCategory":2,"dx":1,"dy":1,"la1":30.253999710083008,"la2":30.299108505249023,"lo1":-89.0895004272461,"lo2":-89.04439544677734,"nx":28,"ny":28,"refTime":"2022-09-24T21:00:00:Z","depth":0,"parameterNumber":1,"parameterNumberName":"U-component_of_WINDS"},"data":[0.0616,0.0559,0.0546,0.0472,0.0448,0.0395,0.0371,0.0338,0.0309,0.0241,0.0199,0.0178,0.0141,0.0085,0.0037,0.0028,0.0007,-0.0004,-0.0013,0.0053,0.006,0.0068,0.0081,-0.0007,-0.0007,-0.008,-0.0081,-0.0082,0.0662,0.0639,0.0597,0.0548,0.0511,0.0514,0.0474,0.0442,0.0393,0.0357,0.0315,0.0254,0.0203,0.0168,0.0116,0.0085,0.0081,0.0071,0.0071,0.0065,0.0135,0.0149,0.0075,0.0075,0.0075,0.0075,0.0075,0.0075,0.0743,0.0709,0.0672,0.0627,0.0599,0.0565,0.0529,0.0506,0.0463,0.041,0.0401,0.0345,0.0304,0.0234,0.0206,0.016,0.0168,0.0151,0.0146,0.0141,0.0138,0.024,0.015,0.0151,0.0151,0.0151,0.0151,0,0.0797,0.0788,0.0749,0.0704,0.067,0.0634,0.0598,0.0576,0.0552,0.0517,0.0466,0.0433,0.0368,0.0315,0.0263,0.0237,0.0233,0.0232,0.022,0.0221,0.0229,0.0221,0.0333,0.0234,0.0235,0.0235,0.0236,0.0236,0.0874,0.0837,0.0793,0.0766,0.0744,0.0701,0.0672,0.0655,0.0624,0.0576,0.0545,0.0495,0.0452,0.037,0.0339,0.0289,0.0286,0.0249,0.0278,0.0282,0.0281,0.0282,0.0276,0.0243,0.0242,0.0241,0.0241,0,0.0917,0.0898,0.0837,0.0797,0.0785,0.0747,0.071,0.0675,0.0656,0.0604,0.0591,0.0559,0.0508,0.0484,0.042,0.0408,0.0337,0.0338,0.0351,0.0349,0.0311,0.0313,0.0199,0.0181,0.0276,0.0275,0.0274,0,0.0974,0.0926,0.0899,0.0865,0.0811,0.0795,0.0741,0.0719,0.0686,0.0645,0.0639,0.06,0.0576,0.0532,0.0515,0.0454,0.0443,0.0429,0.0424,0.0428,0.0429,0.0408,0.0411,0.042,0.0421,0.0421,0.0422,0,0.1042,0.0973,0.0918,0.0899,0.0851,0.0825,0.0803,0.0766,0.0737,0.0697,0.0677,0.0631,0.0604,0.0567,0.0545,0.0565,0.0471,0.0494,0.0456,0.0456,0.0434,0.0435,0.0343,0.0423,0.0423,0.0423,0.0423,0,0.1083,0.1046,0.0971,0.093,0.0912,0.0876,0.083,0.0793,0.0754,0.0742,0.071,0.0702,0.065,0.0674,0.06,0.0632,0.0605,0.0588,0.0585,0.0576,0.0603,0.055,0.0467,0.0456,0.057,0.0572,0.0573,0,0.1165,0.1084,0.1071,0.0999,0.0958,0.0954,0.0913,0.088,0.086,0.0821,0.0798,0.0753,0.0767,0.0749,0.0716,0.069,0.0648,0.0695,0.0632,0.063,0.064,0.0564,0.0556,0.0489,0.0588,0.0587,0.0586,0,0.1225,0.117,0.1159,0.1135,0.1091,0.1057,0.1011,0.0964,0.0938,0.0902,0.086,0.0798,0.0804,0.0776,0.0765,0.0731,0.0676,0.0742,0.0741,0.0728,0.0596,0.0588,0.0577,0.0675,0.0673,0.0671,0.0598,0,0.1286,0.1245,0.1214,0.1165,0.1136,0.1091,0.1069,0.1041,0.1034,0.1015,0.0954,0.092,0.0871,0.0853,0.0846,0.0779,0.0786,0.0793,0.0813,0.0765,0.074,0.073,0.0852,0.0853,0.0853,0.0853,0,0,0.1367,0.1308,0.1295,0.1251,0.1226,0.1223,0.1176,0.1151,0.1099,0.108,0.1092,0.0998,0.097,0.0898,0.0882,0.0863,0.0847,0.0866,0.0789,0.0782,0.0775,0.0749,0.0739,0.0854,0.0854,0.0854,0.0855,0,0.1385,0.1362,0.1318,0.1292,0.1253,0.1236,0.1225,0.1185,0.117,0.1113,0.1109,0.107,0.0997,0.0967,0.0942,0.0875,0.0872,0.0862,0.0832,0.0794,0.0786,0.0779,0.0752,0.0743,0.0855,0.0855,0.0855,0,0.1438,0.1411,0.1388,0.1333,0.1307,0.1266,0.1282,0.1239,0.1207,0.1204,0.1147,0.1125,0.1083,0.102,0.0991,0.1,0.0896,0.0926,0.0923,0.0918,0.0879,0.087,0.0862,0.0968,0.0968,0.0969,0,0,0.1456,0.1419,0.1383,0.1335,0.1319,0.1294,0.127,0.1261,0.1226,0.1211,0.1183,0.1147,0.1104,0.1076,0.1034,0.0969,0.0957,0.0941,0.0935,0.0931,0.0924,0.0884,0.0875,0.097,0.097,0.097,0,0,0.1464,0.1422,0.1422,0.1364,0.1332,0.1292,0.1262,0.1261,0.1222,0.1225,0.1205,0.1195,0.1136,0.1114,0.1142,0.104,0.1061,0.1054,0.1056,0.1049,0.1044,0.1049,0.1151,0,0,0,0,0,0.1471,0.1427,0.1428,0.1415,0.1345,0.1292,0.1283,0.1267,0.1282,0.1258,0.1234,0.1235,0.1125,0.1149,0.1135,0.1103,0.0994,0.099,0.0986,0.0974,0.0967,0.0961,0,0,0,0,0,0,0.1466,0.145,0.1429,0.1388,0.1372,0.1294,0.1314,0.1309,0.1284,0.1285,0.124,0.1233,0.1218,0.1155,0.1142,0.1113,0.1156,0.0993,0.0989,0.0986,0.0972,0.0966,0.0961,0,0,0,0,0,0.1462,0.1449,0.1342,0.1389,0.1375,0.1344,0.1316,0.1312,0.1292,0.1255,0.1249,0.1282,0.1217,0.1206,0.1147,0.1119,0.1164,0.1159,0.099,0.0987,0.0985,0.0969,0,0,0,0,0,0,0.1459,0.1444,0.1338,0.1334,0.1405,0.1348,0.1338,0.1314,0.1263,0.1257,0.1297,0.1298,0.1216,0.1208,0.1199,0.1122,0.1171,0.1166,0.1163,0.0988,0.0986,0.0984,0,0,0,0,0,0,0.145,0.144,0.1336,0.1357,0.1354,0.1351,0.1343,0.1291,0.1262,0.1308,0.1307,0.1298,0.1229,0.1209,0.1202,0.1122,0.1176,0.1172,0.1168,0.1167,0.0986,0.0985,0,0,0,0,0,0,0.1446,0.1436,0.1358,0.1356,0.1354,0.1297,0.1305,0.1233,0.1283,0.131,0.1287,0.1288,0.123,0.1223,0.1204,0.1127,0.1123,0.1176,0.1173,0.1171,0.1169,0,0,0,0,0,0,0,0.1442,0.1508,0.1368,0.1356,0.1354,0.1288,0.1287,0.1285,0.1283,0.1285,0.1286,0.1288,0.1201,0.1196,0.1191,0.1131,0,0,0.1176,0.1174,0,0,0,0,0,0,0,0,0.1511,0.1509,0.1368,0.1367,0.1366,0.1288,0.1287,0.1286,0.1284,0.1285,0.1286,0.1287,0.12,0.1196,0.1192,0,0,0,0,0,0,0,0,0,0,0,0,0,0,0,0.1368,0.1367,0,0.1288,0.1287,0.1286,0.1284,0.1285,0.1286,0.1287,0.1198,0.1195,0.1192,0,0,0,0,0,0,0,0,0,0,0,0,0,0,0,0,0,0,0,0,0,0,0,0,0,0,0,0,0,0,0,0,0,0,0,0,0,0,0,0,0,0,0,0,0,0,0,0,0,0,0,0,0,0,0,0,0,0,0,0,0,0,0,0,0,0,0,0,0]}],[{"header":{"parameterUnit":"kt","parameterCategory":2,"dx":1,"dy":1,"la1":30.253999710083008,"la2":30.299108505249023,"lo1":-89.0895004272461,"lo2":-89.04439544677734,"nx":28,"ny":28,"refTime":"2022-09-24T21:00:00:Z","depth":0,"parameterNumber":2,"parameterNumberName":"V-component_of_WINDS"},"data":[5.7651,5.7714,5.7715,5.7787,5.7799,5.7847,5.7864,5.7885,5.7902,5.7957,5.7989,5.7994,5.8009,5.8045,5.8077,5.8078,5.809,5.8113,5.8109,5.8011,5.7997,5.7983,5.7967,5.8117,5.8117,5.821,5.8211,5.8212,5.7578,5.7591,5.763,5.7667,5.77,5.7678,5.7705,5.7732,5.7775,5.7797,5.7828,5.7876,5.7914,5.792,5.7955,5.7982,5.7972,5.7991,5.7987,5.7989,5.7884,5.7868,5.7999,5.7999,5.7999,5.7999,5.7999,5.7999,5.7445,5.7483,5.7506,5.7547,5.7566,5.759,5.7626,5.7632,5.7668,5.7706,5.7698,5.7746,5.7765,5.7806,5.7819,5.7855,5.7832,5.7852,5.7856,5.786,5.7865,5.7725,5.7861,5.7861,5.786,5.786,5.786,0,5.7346,5.7343,5.738,5.7418,5.7448,5.7476,5.7501,5.7523,5.7515,5.7545,5.7588,5.7612,5.7659,5.7698,5.773,5.7739,5.7715,5.7714,5.7726,5.7729,5.7727,5.7725,5.7551,5.7708,5.7707,5.7706,5.7705,5.7705,5.7208,5.7254,5.7277,5.7303,5.7317,5.7359,5.7383,5.7373,5.7399,5.7427,5.746,5.75,5.753,5.7598,5.76,5.7634,5.7622,5.7682,5.7627,5.7629,5.7618,5.7614,5.7617,5.7691,5.7693,5.7694,5.7695,0,5.7129,5.7129,5.7199,5.7217,5.7223,5.7271,5.7285,5.7322,5.7323,5.7374,5.7385,5.7385,5.7426,5.7419,5.7465,5.7459,5.7533,5.7523,5.7526,5.7522,5.7572,5.7566,5.7743,5.7764,5.7613,5.7614,5.7616,0,5.701,5.707,5.7065,5.7106,5.7172,5.716,5.7225,5.7232,5.7249,5.7288,5.7263,5.73,5.7285,5.7322,5.7314,5.7374,5.7383,5.7381,5.7377,5.7381,5.7381,5.739,5.7381,5.7372,5.7371,5.737,5.737,0,5.6884,5.6953,5.702,5.7035,5.7059,5.709,5.7102,5.712,5.7144,5.7173,5.7187,5.7223,5.7241,5.7267,5.7256,5.7219,5.7331,5.7277,5.7328,5.7328,5.7349,5.7347,5.7509,5.7368,5.7368,5.7368,5.7368,0,5.6785,5.6818,5.6916,5.6935,5.6953,5.6997,5.703,5.7067,5.7088,5.7087,5.7109,5.7089,5.7143,5.709,5.7163,5.7117,5.7136,5.7139,5.7143,5.7143,5.7082,5.717,5.7329,5.7343,5.7149,5.7147,5.7145,0,5.664,5.6739,5.6729,5.6822,5.6867,5.6833,5.6882,5.6902,5.6904,5.694,5.6941,5.6982,5.6941,5.6952,5.699,5.6991,5.7052,5.6983,5.703,5.7032,5.7022,5.7169,5.7192,5.7296,5.7122,5.7125,5.7126,0,5.6526,5.6556,5.6574,5.6589,5.6615,5.6652,5.6709,5.6747,5.6771,5.6798,5.6842,5.6901,5.6871,5.6891,5.6878,5.6917,5.701,5.6879,5.6879,5.69,5.7111,5.7132,5.715,5.6992,5.6995,5.6998,5.7108,0,5.6371,5.6421,5.6469,5.6506,5.6534,5.6593,5.6586,5.6616,5.66,5.66,5.6667,5.6681,5.6718,5.6737,5.6722,5.6816,5.6798,5.6765,5.6709,5.6807,5.6843,5.6858,5.6656,5.6655,5.6653,5.6652,0,0,5.623,5.6301,5.6287,5.6342,5.6364,5.6327,5.639,5.6407,5.6442,5.6457,5.6427,5.6511,5.6523,5.6604,5.6635,5.6651,5.6665,5.6631,5.6761,5.6774,5.6785,5.6824,5.6839,5.665,5.6649,5.6649,5.6648,0,5.6171,5.6188,5.6252,5.6269,5.6295,5.6292,5.6307,5.6325,5.6327,5.6394,5.6359,5.6399,5.6467,5.6482,5.6499,5.6623,5.6593,5.6636,5.6703,5.6748,5.6762,5.6774,5.6815,5.683,5.6645,5.6645,5.6645,0,5.6055,5.6069,5.6099,5.615,5.6166,5.6212,5.6153,5.6205,5.6239,5.6192,5.6258,5.6264,5.6285,5.6365,5.64,5.6372,5.6526,5.6477,5.6486,5.6488,5.653,5.6547,5.6563,5.6362,5.6361,5.636,0,0,5.6004,5.6051,5.6061,5.6137,5.6149,5.6145,5.6169,5.6156,5.6177,5.6185,5.6192,5.6212,5.6251,5.6276,5.6312,5.6402,5.6403,5.6443,5.6456,5.6467,5.6475,5.652,5.6537,5.6356,5.6356,5.6356,0,0,5.5978,5.5994,5.5975,5.6063,5.6085,5.6098,5.6144,5.612,5.6152,5.6144,5.6122,5.6126,5.62,5.6207,5.616,5.6291,5.6236,5.6247,5.6283,5.63,5.6313,5.6308,5.6098,0,0,0,0,0,5.5913,5.5992,5.5975,5.5989,5.6051,5.6108,5.6116,5.61,5.6062,5.6098,5.61,5.6067,5.6177,5.6135,5.6147,5.6198,5.631,5.6318,5.6326,5.6393,5.6411,5.6426,0,0,0,0,0,0,5.5919,5.5935,5.5973,5.599,5.6004,5.6105,5.6036,5.6034,5.6057,5.605,5.6068,5.6067,5.6054,5.6127,5.6139,5.6188,5.6094,5.6313,5.632,5.6326,5.6399,5.6414,5.6426,0,0,0,0,0,5.5923,5.5936,5.6041,5.5989,5.6001,5.5999,5.6033,5.6031,5.6048,5.605,5.6049,5.6034,5.6056,5.6064,5.6134,5.6183,5.6085,5.609,5.6318,5.6323,5.6328,5.6406,0,0,0,0,0,0,5.5926,5.5934,5.6043,5.6046,5.5958,5.5993,5.5998,5.6028,5.6046,5.6046,5.6015,5.601,5.6058,5.6064,5.6071,5.6182,5.6079,5.6083,5.6086,5.6322,5.6326,5.633,0,0,0,0,0,0,5.5926,5.5936,5.6045,5.6006,5.6005,5.5988,5.5992,5.6049,5.6047,5.601,5.6006,5.6013,5.6047,5.6065,5.607,5.6159,5.6074,5.6078,5.6081,5.6083,5.6325,5.6329,0,0,0,0,0,0,5.593,5.5939,5.6005,5.6004,5.6003,5.6035,5.6037,5.6102,5.6016,5.601,5.6008,5.6004,5.6048,5.6053,5.6069,5.6157,5.6158,5.6074,5.6077,5.6079,5.608,0,0,0,0,0,0,0,5.5933,5.5879,5.6026,5.6003,5.6001,5.6074,5.6075,5.6075,5.6015,5.6012,5.6009,5.6006,5.6049,5.6054,5.6059,5.6155,0,0,5.6073,5.6075,0,0,0,0,0,0,0,0,5.5875,5.5878,5.6026,5.6026,5.6027,5.6074,5.6075,5.6075,5.6015,5.6012,5.6009,5.6007,5.605,5.6054,5.6058,0,0,0,0,0,0,0,0,0,0,0,0,0,0,0,5.6026,5.6026,0,5.6074,5.6075,5.6075,5.6014,5.6012,5.601,5.6008,5.6051,5.6055,5.6058,0,0,0,0,0,0,0,0,0,0,0,0,0,0,0,0,0,0,0,0,0,0,0,0,0,0,0,0,0,0,0,0,0,0,0,0,0,0,0,0,0,0,0,0,0,0,0,0,0,0,0,0,0,0,0,0,0,0,0,0,0,0,0,0,0,0,0,0,0]}]]]